• In Netherlands
  • List of Countries
  • For 7 days
  • Water Temperature
  • Satellite Maps
  • Weather Map
  • Weather Widgets
  • user-avatar
    Login

    Hourly Weather Pamporovo

    Today, 29 June, Thursday

    Time Temperature Precipitation Wind Pressure Humidity
    00:00 +13°C° 0 mm 1 mps 624 mmHg 79%
    01:00 +13°C° 0 mm 1 mps 624 mmHg 80%
    02:00 +12°C° 0 mm 1 mps 624 mmHg 81%
    03:00 +12°C° 0 mm 1 mps 624 mmHg 81%
    04:00 +12°C° 0 mm 1 mps 624 mmHg 81%
    05:00 +12°C° 0 mm 1 mps 624 mmHg 82%
    06:00 +15°C° 0 mm 1 mps 625 mmHg 72%
    07:00 +19°C° 0 mm 1 mps 627 mmHg 63%
    08:00 +20°C° 0 mm 0 mps 628 mmHg 53%
    09:00 +24°C° 0 mm 1 mps 629 mmHg 47%
    10:00 +26°C° 0 mm 1 mps 629 mmHg 41%
    11:00 +27°C° 0 mm 2 mps 630 mmHg 35%
    12:00 +28°C° 0 mm 2 mps 630 mmHg 33%
    13:00 +29°C° 0 mm 3 mps 630 mmHg 31%
    14:00 +30°C° 0 mm 3 mps 630 mmHg 29%
    15:00 +29°C° 0 mm 4 mps 630 mmHg 31%
    16:00 +29°C° 0 mm 4 mps 629 mmHg 32%
    17:00 +28°C° 0 mm 4 mps 629 mmHg 34%
    18:00 +25°C° 0 mm 3 mps 628 mmHg 44%
    19:00 +21°C° 0 mm 3 mps 627 mmHg 55%
    20:00 +18°C° 0 mm 2 mps 625 mmHg 65%
    21:00 +17°C° 0 mm 2 mps 626 mmHg 65%
    22:00 +17°C° 0 mm 2 mps 626 mmHg 65%
    23:00 +16°C° 0 mm 2 mps 626 mmHg 65%

    Tomorrow, 30 June, Friday

    Time Temperature Precipitation Wind Pressure Humidity
    00:00 +15°C° 0 mm 2 mps 626 mmHg 65%
    01:00 +15°C° 0 mm 2 mps 626 mmHg 65%
    02:00 +14°C° 0 mm 2 mps 626 mmHg 65%
    03:00 +14°C° 0 mm 2 mps 626 mmHg 64%
    04:00 +14°C° 0 mm 2 mps 626 mmHg 64%
    05:00 +13°C° 0 mm 2 mps 626 mmHg 64%
    06:00 +16°C° 0 mm 1 mps 627 mmHg 56%
    07:00 +20°C° 0 mm 1 mps 629 mmHg 49%
    08:00 +22°C° 0 mm 0 mps 630 mmHg 42%
    09:00 +26°C° 0 mm 1 mps 631 mmHg 36%
    10:00 +27°C° 0 mm 1 mps 632 mmHg 31%
    11:00 +29°C° 0 mm 1 mps 632 mmHg 25%
    12:00 +30°C° 0 mm 1 mps 632 mmHg 23%
    13:00 +31°C° 0 mm 1 mps 632 mmHg 22%
    14:00 +32°C° 0 mm 1 mps 632 mmHg 20%
    15:00 +31°C° 0 mm 2 mps 632 mmHg 21%
    16:00 +31°C° 0 mm 2 mps 631 mmHg 22%
    17:00 +31°C° 0 mm 2 mps 631 mmHg 24%
    18:00 +26°C° 0 mm 1 mps 630 mmHg 35%
    19:00 +22°C° 0 mm 1 mps 628 mmHg 46%
    20:00 +18°C° 0 mm 1 mps 626 mmHg 57%
    21:00 +18°C° 0 mm 1 mps 627 mmHg 57%
    22:00 +18°C° 0 mm 1 mps 627 mmHg 57%
    23:00 +16°C° 0 mm 1 mps 627 mmHg 57%

    Day after tomorrow, 1 July, Saturday

    Time Temperature Precipitation Wind Pressure Humidity
    00:00 +16°C° 0 mm 1 mps 627 mmHg 56%
    01:00 +16°C° 0 mm 1 mps 627 mmHg 55%
    02:00 +15°C° 0 mm 1 mps 627 mmHg 54%
    03:00 +15°C° 0 mm 1 mps 626 mmHg 56%
    04:00 +14°C° 0 mm 1 mps 626 mmHg 58%
    05:00 +14°C° 0 mm 1 mps 626 mmHg 60%
    06:00 +18°C° 0 mm 1 mps 627 mmHg 53%
    07:00 +21°C° 0 mm 1 mps 628 mmHg 45%
    08:00 +25°C° 0 mm 1 mps 630 mmHg 37%
    09:00 +27°C° 0 mm 1 mps 630 mmHg 33%
    10:00 +28°C° 0 mm 2 mps 631 mmHg 29%
    11:00 +30°C° 0 mm 2 mps 631 mmHg 25%
    12:00 +31°C° 0 mm 2 mps 631 mmHg 24%
    13:00 +32°C° 0 mm 2 mps 631 mmHg 22%
    14:00 +34°C° 0 mm 2 mps 631 mmHg 20%
    15:00 +32°C° 0 mm 2 mps 630 mmHg 21%
    16:00 +31°C° 0 mm 2 mps 630 mmHg 23%
    17:00 +31°C° 0 mm 2 mps 629 mmHg 24%
    18:00 +27°C° 0 mm 2 mps 627 mmHg 34%
    19:00 +23°C° 0 mm 2 mps 626 mmHg 44%
    20:00 +19°C° 0 mm 1 mps 624 mmHg 53%
    21:00 +19°C° 0 mm 1 mps 624 mmHg 53%
    22:00 +18°C° 0 mm 2 mps 624 mmHg 52%
    23:00 +17°C° 0 mm 2 mps 624 mmHg 51%

    2 July, Sunday

    Time Temperature Precipitation Wind Pressure Humidity
    00:00 +17°C° 0 mm 2 mps 624 mmHg 51%
    01:00 +16°C° 0 mm 1 mps 624 mmHg 52%
    02:00 +16°C° 0 mm 1 mps 623 mmHg 52%
    03:00 +15°C° 0 mm 1 mps 623 mmHg 56%
    04:00 +13°C° 0 mm 1 mps 622 mmHg 60%
    05:00 +12°C° 0 mm 1 mps 622 mmHg 63%
    06:00 +16°C° 0 mm 1 mps 623 mmHg 56%
    07:00 +20°C° 0 mm 1 mps 625 mmHg 49%
    08:00 +23°C° 0 mm 1 mps 626 mmHg 41%
    09:00 +25°C° 0 mm 1 mps 626 mmHg 37%
    10:00 +26°C° 0 mm 1 mps 627 mmHg 34%
    11:00 +28°C° 0 mm 2 mps 627 mmHg 30%
    12:00 +29°C° 0 mm 2 mps 627 mmHg 28%
    13:00 +30°C° 0 mm 2 mps 627 mmHg 26%
    14:00 +30°C° 0 mm 3 mps 626 mmHg 24%
    15:00 +29°C° 0 mm 3 mps 626 mmHg 27%
    16:00 +28°C° 0 mm 3 mps 625 mmHg 29%
    17:00 +27°C° 0 mm 3 mps 624 mmHg 32%
    18:00 +24°C° 0.2 mm 3 mps 623 mmHg 44%
    19:00 +20°C° 0.2 mm 2 mps 622 mmHg 56%
    20:00 +16°C° 0.2 mm 2 mps 621 mmHg 69%
    21:00 +15°C° 0.7 mm 2 mps 621 mmHg 74%
    22:00 +13°C° 0.7 mm 3 mps 621 mmHg 80%
    23:00 +12°C° 0.7 mm 3 mps 621 mmHg 86%

    3 July, Monday

    Time Temperature Precipitation Wind Pressure Humidity
    00:00 +11°C° 0.3 mm 3 mps 621 mmHg 86%
    01:00 +10°C° 0.3 mm 3 mps 621 mmHg 86%
    02:00 +10°C° 0.3 mm 3 mps 621 mmHg 86%
    03:00 +9°C° 0.4 mm 3 mps 621 mmHg 86%
    04:00 +9°C° 0.4 mm 3 mps 621 mmHg 86%
    05:00 +8°C° 0.4 mm 3 mps 621 mmHg 86%
    06:00 +9°C° 0.3 mm 3 mps 622 mmHg 84%
    07:00 +10°C° 0.3 mm 3 mps 623 mmHg 81%
    08:00 +11°C° 0.3 mm 3 mps 623 mmHg 78%
    09:00 +11°C° 0.5 mm 3 mps 624 mmHg 74%
    10:00 +12°C° 0.5 mm 3 mps 625 mmHg 70%
    11:00 +13°C° 0.5 mm 4 mps 625 mmHg 66%
    12:00 +14°C° 0.2 mm 4 mps 625 mmHg 61%
    13:00 +15°C° 0.2 mm 4 mps 626 mmHg 55%
    14:00 +17°C° 0.2 mm 4 mps 626 mmHg 50%
    15:00 +15°C° 0.1 mm 4 mps 626 mmHg 50%
    16:00 +15°C° 0.1 mm 4 mps 626 mmHg 51%
    17:00 +15°C° 0.1 mm 4 mps 626 mmHg 51%
    18:00 +13°C° 0 mm 4 mps 626 mmHg 57%
    19:00 +11°C° 0 mm 3 mps 625 mmHg 64%
    20:00 +9°C° 0 mm 2 mps 625 mmHg 71%
    21:00 +9°C° 0 mm 2 mps 625 mmHg 72%
    22:00 +8°C° 0 mm 2 mps 625 mmHg 74%
    23:00 +7°C° 0 mm 2 mps 625 mmHg 76%

    4 July, Tuesday

    Time Temperature Precipitation Wind Pressure Humidity
    00:00 +7°C° 0 mm 2 mps 625 mmHg 77%
    01:00 +7°C° 0 mm 2 mps 625 mmHg 78%
    02:00 +7°C° 0 mm 2 mps 625 mmHg 80%
    03:00 +7°C° 0 mm 2 mps 625 mmHg 81%
    04:00 +6°C° 0 mm 2 mps 625 mmHg 82%
    05:00 +6°C° 0 mm 2 mps 625 mmHg 83%
    06:00 +8°C° 0 mm 2 mps 626 mmHg 74%
    07:00 +12°C° 0 mm 2 mps 628 mmHg 66%
    08:00 +14°C° 0 mm 2 mps 629 mmHg 58%
    09:00 +15°C° 0 mm 2 mps 629 mmHg 54%
    10:00 +17°C° 0 mm 2 mps 630 mmHg 49%
    11:00 +19°C° 0 mm 2 mps 630 mmHg 45%
    12:00 +19°C° 0 mm 2 mps 630 mmHg 45%
    13:00 +19°C° 0 mm 2 mps 630 mmHg 44%
    14:00 +19°C° 0 mm 2 mps 630 mmHg 44%
    15:00 +18°C° 0 mm 2 mps 629 mmHg 48%
    16:00 +19°C° 0 mm 1 mps 629 mmHg 51%
    17:00 +19°C° 0 mm 1 mps 629 mmHg 55%
    18:00 +15°C° 0 mm 1 mps 628 mmHg 62%
    19:00 +13°C° 0 mm 1 mps 627 mmHg 69%
    20:00 +11°C° 0 mm 1 mps 626 mmHg 75%
    21:00 +10°C° 0 mm 1 mps 626 mmHg 78%
    22:00 +8°C° 0 mm 1 mps 626 mmHg 81%
    23:00 +7°C° 0 mm 1 mps 626 mmHg 84%
    Show more